Miscellaneous Local Product
Issued by NWS Hastings, NE

Home | Current Version | Previous Version | Graphics & Text | Print | Product List | Glossary On
Versions: 1 2 3 4 5 6 7 8 9 10 11 12 13 14 15 16 17 18 19 20 21 22 23 24 25 26 27 28 29 30 31 32 33 34 35 36 37 38 39 40 41 42 43 44 45 46 47 48 49 50
000
AXUS43 KGID 290002
MISGRI

GID CWA HOURLY WEATHER ROUNDUP
NATIONAL WEATHER SERVICE HASTINGS NE
700 PM CDT MON JUL 28 2014

NOTE: "FAIR" INDICATES FEW OR NO CLOUDS BELOW 12,000 FEET WITH NO
SIGNIFICANT WEATHER AND/OR OBSTRUCTIONS TO VISIBILITY.

...SOUTH CENTRAL NEBRASKA...

CITY           SKY/WX    TMP DP  RH WIND       PRES   REMARKS
GRAND ISLAND   SUNNY     76  57  51 E8        30.23F
HASTINGS       SUNNY     77  56  48 NE6       30.23F
KEARNEY        SUNNY     79  57  47 E8        30.23F
ORD            SUNNY     78  54  43 N6        30.22F
YORK           SUNNY     73  57  56 N10       30.23F
AURORA         SUNNY     76  57  52 NE6       30.23F
LEXINGTON      PTSUNNY   80  58  46 E7        30.21F
HOLDREGE       SUNNY     78  58  48 E8        30.22F
HEBRON         SUNNY     77  54  45 N5        30.21F

...NEBRASKA PANHANDLE...

CITY           SKY/WX    TMP DP  RH WIND       PRES   REMARKS
CHADRON        SUNNY     87  55  33 E13       30.17F
ALLIANCE       MOSUNNY   87  53  31 S10       30.21F
SCOTTSBLUFF    SUNNY     88  58  36 E13       30.19F
SIDNEY         CLOUDY    82  56  40 S13G24    30.24S

...WESTERN AND NORTH CENTRAL NEBRASKA...

CITY           SKY/WX    TMP DP  RH WIND       PRES   REMARKS
VALENTINE      SUNNY     81  51  35 NE10      30.23F
AINSWORTH      SUNNY     77  51  39 E7        30.24S
ONEILL         MOSUNNY   77  48  36 NE3       30.24S
BROKEN BOW     PTSUNNY   78  58  49 E3        30.23F
IMPERIAL       MOSUNNY   87  54  32 E9        30.19F
NORTH PLATTE   CLOUDY    80  59  48 E13       30.21F
MCCOOK         MOSUNNY   85  59  41 E16       30.17F

...EASTERN NEBRASKA...

CITY           SKY/WX    TMP DP  RH WIND       PRES   REMARKS
NORFOLK        SUNNY     75  51  43 N10       30.22F
SO SIOUX CITY  MOSUNNY   74  56  53 N7        30.19F
TEKAMAH        SUNNY     77  55  46 NW10      30.18F
ALBION         SUNNY     73  55  52 NE5       30.23F
OMAHA EPPLEY   MOSUNNY   78  54  43 NW9       30.17F
OFFUTT AFB     MOSUNNY   77  56  48 VRB2      30.17F
MILLARD        MOSUNNY   77  55  45 NW8       30.18F
LINCOLN        SUNNY     78  51  38 N14       30.21F
NEBRASKA CITY  MOSUNNY   75  54  47 N7        30.18F
BEATRICE       SUNNY     75  56  51 N12       30.20S
FALLS CITY     SUNNY     77  54  44 N8        30.16F

...NORTHERN KANSAS...

CITY           SKY/WX    TMP DP  RH WIND       PRES   REMARKS
GOODLAND       MOSUNNY   80  51  36 S16       30.24F
HILL CITY      SUNNY     90  56  31 SE10      30.16F
NORTON         CLEAR     88  48  25 E8        30.17F
PHILLIPSBURG   SUNNY     88  52  29 CALM      30.17F
SMITH CENTER   SUNNY     84  54  34 NE5       30.18F
HAYS           SUNNY     86  57  37 E8        30.17F
RUSSELL        SUNNY     86  55  34 CALM      30.16F
CONCORDIA      PTSUNNY   80  56  43 N13       30.19F
SALINA         SUNNY     86  54  33 NE5       30.16F
TOPEKA         SUNNY     82  57  42 N12       30.16S



USA.gov is the U.S. government's official web portal to all federal, state and local government web resources and services.